,,PA_Meas_PMT16A,,PR_Meas_QMR101_102,,RH_Meas_QMH101,,SR_Meas_QMS101,,TA_Meas_QMH101,,GenWind,,GenWind,
time,status,PA,status,PR,status,RH,status,SR,status,TA,status,DirAvg,status,SpdAvg,
2015-12-22, 16:06:04,VALID,917.167,VALID,0,VALID,81.9212,VALID,106.259,VALID,23.229,VALID,246,VALID,2.41914,
2015-12-22, 16:07:04,VALID,917.175,VALID,0,VALID,83.2248,VALID,116.574,VALID,22.9948,VALID,225,VALID,2.09727,
2015-12-22, 16:08:04,VALID,917.199,VALID,0,VALID,83.6289,VALID,115.822,VALID,22.8174,VALID,255,VALID,2.13516,
2015-12-22, 16:09:04,VALID,917.211,VALID,0,VALID,86.4953,VALID,123.665,VALID,22.7394,VALID,232,VALID,0.877734,
2015-12-22, 16:10:04,VALID,917.227,VALID,0,VALID,90.1316,VALID,128.07,VALID,22.6808,VALID,246,VALID,0.167969,
2015-12-22, 16:11:04,VALID,917.209,VALID,0,VALID,97.0232,VALID,134.194,VALID,22.6825,VALID,211,VALID,0.266406,
2015-12-22, 16:12:04,VALID,917.241,VALID,0,VALID,97.9456,VALID,139.781,VALID,22.6435,VALID,233,VALID,0.0859375,
2015-12-22, 16:13:04,VALID,917.223,VALID,0,VALID,91.9079,VALID,146.872,VALID,22.6045,VALID,255,VALID,1.95078,
2015-12-22, 16:14:04,VALID,917.231,VALID,0,VALID,96.4438,VALID,154.393,VALID,22.6045,VALID,245,VALID,0.244141,
2015-12-22, 16:15:04,VALID,917.211,VALID,0,VALID,94.4694,VALID,159.12,VALID,22.5867,VALID,222,VALID,1.35664,
2015-12-22, 16:16:04,VALID,917.209,VALID,0,VALID,98.3954,VALID,163.525,VALID,22.624,VALID,226,VALID,0.000390625,
2015-12-22, 16:17:04,VALID,917.219,VALID,0,VALID,93.5851,VALID,158.583,VALID,22.5459,VALID,250,VALID,1.93828,
2015-12-22, 16:18:04,VALID,917.253,VALID,0,VALID,95.7501,VALID,152.137,VALID,22.5264,VALID,251,VALID,0.910937,
2015-12-22, 16:19:04,VALID,917.269,VALID,0,VALID,97.412,VALID,142.789,VALID,22.4874,VALID,252,VALID,0.0542969,
2015-12-22, 16:20:04,VALID,917.29,VALID,0,VALID,97.8999,VALID,123.235,VALID,22.5086,VALID,226,VALID,0.882422,
2015-12-22, 16:21:04,VALID,917.319,VALID,0,VALID,94.4465,VALID,99.2756,VALID,22.4679,VALID,237,VALID,0.549609,
2015-12-22, 16:44:04,VALID,917.379,VALID,0,VALID,101.788,VALID,101.424,VALID,22.0013,VALID,150,VALID,0,
2015-12-22, 16:45:04,VALID,917.403,VALID,0,VALID,100.56,VALID,104.755,VALID,21.9818,VALID,148,VALID,0,
2015-12-22, 16:46:04,VALID,917.435,VALID,0,VALID,100.027,VALID,107.763,VALID,22.0013,VALID,149,VALID,0,
2015-12-22, 16:47:04,VALID,917.465,VALID,0,VALID,99.2416,VALID,110.772,VALID,22.0013,VALID,149,VALID,0,
2015-12-22, 16:48:04,VALID,917.481,VALID,0,VALID,100.004,VALID,114.747,VALID,22.0598,VALID,149,VALID,0,
2015-12-22, 16:49:04,VALID,917.492,VALID,0,VALID,101.178,VALID,118.185,VALID,22.1574,VALID,148,VALID,0,
2015-12-22, 16:50:04,VALID,917.571,VALID,0,VALID,101.323,VALID,119.797,VALID,22.2354,VALID,148,VALID,0,
2015-12-22, 16:51:04,VALID,917.592,VALID,0,VALID,100.423,VALID,118.937,VALID,22.255,VALID,148,VALID,0,
2015-12-22, 16:52:04,VALID,917.634,VALID,0,VALID,100.05,VALID,115.284,VALID,22.2745,VALID,148,VALID,0,
2015-12-22, 16:53:04,VALID,917.665,VALID,0,VALID,101.102,VALID,108.301,VALID,22.333,VALID,148,VALID,0,
2015-12-22, 16:54:04,VALID,917.701,VALID,0,VALID,101.613,VALID,101.424,VALID,22.372,VALID,148,VALID,0,
2015-12-22, 16:55:04,VALID,917.71,VALID,0,VALID,99.3102,VALID,96.697,VALID,22.294,VALID,148,VALID,0,
2015-12-22, 16:56:04,VALID,917.739,VALID,0,VALID,100.56,VALID,93.2589,VALID,22.3152,VALID,60,VALID,0.00585938,
2015-12-22, 17:00:04,VALID,917.784,VALID,0,VALID,100.926,VALID,91.2175,VALID,22.4501,VALID,60,VALID,0,
2015-12-22, 17:01:04,VALID,917.827,VALID,0,VALID,101.102,VALID,90.358,VALID,22.4696,VALID,60,VALID,0,
2015-12-22, 17:13:04,VALID,918.05,VALID,0,VALID,103.556,VALID,98.4161,VALID,21.7672,VALID,60,VALID,0,
2015-12-22, 17:14:04,VALID,918.012,VALID,0,VALID,103.61,VALID,107.549,VALID,21.8274,VALID,60,VALID,0,
2015-12-22, 17:15:04,VALID,918.013,VALID,0,VALID,103.595,VALID,116.789,VALID,21.8452,VALID,60,VALID,0,
2015-12-22, 17:16:04,VALID,918.018,VALID,0,VALID,103.32,VALID,121.731,VALID,21.8647,VALID,60,VALID,0,
2015-12-22, 17:17:04,VALID,918.048,VALID,0,VALID,103.267,VALID,123.987,VALID,21.9249,VALID,60,VALID,0,
2015-12-22, 17:18:04,VALID,918.05,VALID,0,VALID,103.625,VALID,127.64,VALID,22.042,VALID,60,VALID,0,
2015-12-22, 17:19:04,VALID,918.106,VALID,0,VALID,103.831,VALID,137.525,VALID,22.1201,VALID,60,VALID,0,
2015-12-22, 17:20:04,VALID,918.074,VALID,0,VALID,103.61,VALID,142.252,VALID,22.1591,VALID,60,VALID,0,
2015-12-22, 17:21:04,VALID,918.112,VALID,0,VALID,102.908,VALID,143.219,VALID,22.1379,VALID,60,VALID,0,
2015-12-22, 17:22:04,VALID,918.146,VALID,0,VALID,102.024,VALID,136.343,VALID,22.1591,VALID,59,VALID,0,
2015-12-22, 17:23:04,VALID,918.147,VALID,0,VALID,101.475,VALID,129.789,VALID,22.1396,VALID,42,VALID,0.837109,
2015-12-22, 17:24:04,VALID,918.114,VALID,0,VALID,101.75,VALID,123.665,VALID,22.1591,VALID,34,VALID,0.00585938,
2015-12-22, 17:25:04,VALID,918.142,VALID,0,VALID,102.062,VALID,118.508,VALID,22.1964,VALID,13,VALID,0,
2015-12-22, 17:26:04,VALID,918.137,VALID,0,VALID,101.712,VALID,115.714,VALID,22.2567,VALID,13,VALID,0,
2015-12-22, 17:27:04,VALID,918.135,VALID,0,VALID,102.299,VALID,112.061,VALID,22.294,VALID,13,VALID,0,
2015-12-22, 17:28:04,VALID,918.112,VALID,0,VALID,102.604,VALID,109.697,VALID,22.2745,VALID,13,VALID,0,
2015-12-22, 17:29:04,VALID,918.104,VALID,0,VALID,102.878,VALID,103.466,VALID,22.2159,VALID,13,VALID,0,
2015-12-22, 17:30:04,VALID,918.058,VALID,0,VALID,103.229,VALID,101.317,VALID,22.1964,VALID,13,VALID,0,
2015-12-22, 17:31:04,VALID,918.054,VALID,0,VALID,102.703,VALID,102.929,VALID,22.1167,VALID,13,VALID,0,
2015-12-22, 17:32:04,VALID,918.016,VALID,0,VALID,102.596,VALID,99.1682,VALID,22.1362,VALID,13,VALID,0,
2015-12-22, 17:33:04,VALID,918.011,VALID,0,VALID,101.727,VALID,94.978,VALID,22.1557,VALID,13,VALID,0,
2015-12-22, 17:34:04,VALID,918.02,VALID,0,VALID,101.277,VALID,89.9282,VALID,22.1964,VALID,13,VALID,0,
2015-12-22, 17:35:04,VALID,918.027,VALID,0,VALID,101.666,VALID,86.705,VALID,22.1752,VALID,13,VALID,0,
2015-12-22, 17:36:04,VALID,918.084,VALID,0,VALID,101.887,VALID,83.4818,VALID,22.1752,VALID,13,VALID,0,
